SCP
0 0 0 0 0 0 0 0 0 -0 -0 0 0 0 0 0 0 0 0 0 0 0
0 0 0 0 0 0 -0 0 0 0 -0 0 0 0 0 0 0 0 0 0 0 0
0 0 0 0 0 0 0 0 0 0 0 0 0 0 0 0 0 0 0 0 0 0
0 0 0 0 0 0 0 0 0 0 0 0 0 0 0 0 0 0 0 0 0 0
0 0 0 0 0 0 0 0 0 0 0 0 0 0 0 0 0 0 0 0 0 0
0 0 0 0 0 0 0 0 0 0 0 0 0 0 0 0 0 0 0 0 0 0
0 0 0 0 0 0 0 0 0 0 0 0 0 0 0 0 0 0 0 0 0 0
0 0 0 0 0 0 0 0 0 0 0 0 0 0 0 0 0 0 0 0 0 0
0 0 0 0 0 0 0 0 0 0 -0 0 0 0 0 0 0 0 0 0 0 0
0 0 0 0 0 0 0 0 0 0 0 0 0 -0 0 0 0 0 0 0 -0 0
0 0 0 0 0 0 0 0 0 0 0 0 0 0 0 0 0 0 0 0 0 -0
0 0 0 0 0 0 0 0 0 0 0 0 -0 0 0 0 -0 0 -0 0 0 0
0 0 0 0 0 0 0 0 0 0 0 0 -0 0 0 0 0 -0 -0 -0 -0 0
0 0 0 0 0 0 0 0 0 0 0 0 0 0 0 0 0 0 -0 -0 0 -0
Wind_Speed_500mb
14 14 14 18 21 4 7 18 30 30 31 26 26 24 21 22 30 24 31 33 30 36
14 16 17 19 17 11 16 19 28 27 32 23 27 25 21 29 34 34 37 35 36 51
12 15 17 16 13 16 12 15 19 27 33 27 27 29 27 29 30 32 33 38 44 52
8 14 15 13 15 15 14 21 21 21 29 34 34 29 27 27 27 27 31 32 37 44
4 8 12 16 11 15 19 20 27 29 30 35 36 33 26 32 32 33 35 34 34 42
2 5 11 19 15 16 18 23 29 31 31 35 34 30 27 32 30 31 29 30 34 42
4 9 11 19 24 25 24 25 28 30 35 34 31 29 32 32 34 33 25 27 37 46
21 21 18 23 29 33 33 28 31 33 34 30 28 28 29 30 27 21 21 27 36 50
25 24 22 24 27 31 28 26 27 27 25 19 20 22 25 30 31 23 33 40 45 48
30 25 23 27 27 25 23 22 23 30 29 30 27 21 31 26 25 32 45 43 55 51
35 31 27 27 24 20 18 17 25 30 32 34 35 39 43 34 31 39 41 47 50 60
42 39 33 33 26 24 21 20 23 28 33 34 35 29 30 37 40 46 48 47 47 50
42 41 35 39 30 28 23 24 28 28 29 32 33 33 30 35 38 42 44 41 41 38
32 42 38 39 37 32 28 24 30 32 33 28 26 30 31 33 33 34 36 37 42 37
Wind_Direction_500mb
15 15 14 10 0 11 136 159 174 181 174 164 172 171 169 171 181 174 188 185 187 194
27 21 13 8 15 80 124 139 171 173 171 161 166 178 180 176 173 177 184 183 183 176
18 22 20 20 68 88 123 136 155 170 177 178 172 175 177 179 180 176 183 187 182 187
1 17 41 60 100 70 99 127 156 156 162 166 168 167 174 173 176 184 179 179 179 186
29 19 46 78 99 87 106 111 136 147 149 156 157 156 154 153 162 169 168 169 169 172
10 68 65 67 98 116 113 113 122 132 142 150 152 154 159 150 148 162 165 164 170 168
119 123 90 77 98 132 128 116 129 134 145 149 154 159 162 157 148 145 148 168 174 174
134 122 109 100 100 119 127 127 139 143 148 155 162 172 180 185 178 181 178 179 174 173
152 133 118 119 106 117 124 114 134 147 148 151 163 172 179 185 185 169 161 156 158 166
161 158 140 136 124 120 112 110 120 142 151 143 133 155 168 174 158 150 147 150 149 146
170 174 159 155 152 139 114 119 119 128 149 142 126 106 128 142 145 151 157 156 153 155
181 182 178 175 167 155 141 134 134 128 137 144 141 152 132 136 132 144 141 146 150 160
189 188 189 185 180 168 162 148 152 146 141 137 134 140 146 148 149 151 154 156 160 165
187 190 190 184 192 193 184 171 165 162 162 160 153 146 148 151 151 151 150 157 161 162
Wind_Speed_850mb
14 14 14 18 21 4 7 18 30 30 31 26 26 24 21 22 30 24 31 33 30 36
14 16 17 19 17 11 16 19 28 27 32 23 27 25 21 29 34 34 37 35 36 51
12 15 17 16 13 16 12 15 19 27 33 27 27 29 27 29 30 32 33 38 44 52
8 14 15 13 15 15 14 21 21 21 29 34 34 29 27 27 27 27 31 32 37 44
4 8 12 16 11 15 19 20 27 29 30 35 36 33 26 32 32 33 35 34 34 42
2 5 11 19 15 16 18 23 29 31 31 35 34 30 27 32 30 31 29 30 34 42
4 9 11 19 24 25 24 25 28 30 35 34 31 29 32 32 34 33 25 27 37 46
21 21 18 23 29 33 33 28 31 33 34 30 28 28 29 30 27 21 21 27 36 50
25 24 22 24 27 31 28 26 27 27 25 19 20 22 25 30 31 23 33 40 45 48
30 25 23 27 27 25 23 22 23 30 29 30 27 21 31 26 25 32 45 43 55 51
35 31 27 27 24 20 18 17 25 30 32 34 35 39 43 34 31 39 41 47 50 60
42 39 33 33 26 24 21 20 23 28 33 34 35 29 30 37 40 46 48 47 47 50
42 41 35 39 30 28 23 24 28 28 29 32 33 33 30 35 38 42 44 41 41 38
32 42 38 39 37 32 28 24 30 32 33 28 26 30 31 33 33 34 36 37 42 37
Wind_Direction_850mb
15 15 14 10 0 11 136 159 174 181 174 164 172 171 169 171 181 174 188 185 187 194
27 21 13 8 15 80 124 139 171 173 171 161 166 178 180 176 173 177 184 183 183 176
18 22 20 20 68 88 123 136 155 170 177 178 172 175 177 179 180 176 183 187 182 187
1 17 41 60 100 70 99 127 156 156 162 166 168 167 174 173 176 184 179 179 179 186
29 19 46 78 99 87 106 111 136 147 149 156 157 156 154 153 162 169 168 169 169 172
10 68 65 67 98 116 113 113 122 132 142 150 152 154 159 150 148 162 165 164 170 168
119 123 90 77 98 132 128 116 129 134 145 149 154 159 162 157 148 145 148 168 174 174
134 122 109 100 100 119 127 127 139 143 148 155 162 172 180 185 178 181 178 179 174 173
152 133 118 119 106 117 124 114 134 147 148 151 163 172 179 185 185 169 161 156 158 166
161 158 140 136 124 120 112 110 120 142 151 143 133 155 168 174 158 150 147 150 149 146
170 174 159 155 152 139 114 119 119 128 149 142 126 106 128 142 145 151 157 156 153 155
181 182 178 175 167 155 141 134 134 128 137 144 141 152 132 136 132 144 141 146 150 160
189 188 189 185 180 168 162 148 152 146 141 137 134 140 146 148 149 151 154 156 160 165
187 190 190 184 192 193 184 171 165 162 162 160 153 146 148 151 151 151 150 157 161 162